Time,TemperatureF,DewpointF,PressureIn,WindDirection,WindDirectionDegrees,WindSpeedMPH,WindSpeedGustMPH,Humidity,HourlyPrecipIn,Conditions,Clouds,dailyrainin,SoftwareType,DateUTC
2014-01-17 00:02:00,21.7,16.0,29.74,NW,322,0.0,-999.0,77,-99.99,,,0.00,weatherlink.com 1.10,2014-01-17 06:02:00,
2014-01-17 00:17:00,20.4,15.0,29.75,NW,321,0.0,-999.0,78,-99.99,,,0.00,weatherlink.com 1.10,2014-01-17 06:17:00,
2014-01-17 00:32:00,19.8,14.0,29.75,NNW,329,0.0,-999.0,78,-99.99,,,0.00,weatherlink.com 1.10,2014-01-17 06:32:00,
2014-01-17 00:47:00,19.0,14.0,29.76,NNW,332,0.0,-999.0,79,-99.99,,,0.00,weatherlink.com 1.10,2014-01-17 06:47:00,
2014-01-17 01:02:00,18.4,13.0,29.77,NW,324,0.0,-999.0,78,-99.99,,,0.00,weatherlink.com 1.10,2014-01-17 07:02:00,
2014-01-17 01:17:00,18.0,13.0,29.77,NW,315,0.0,-999.0,79,-99.99,,,0.00,weatherlink.com 1.10,2014-01-17 07:17:00,
2014-01-17 01:32:00,17.5,12.0,29.78,NNW,336,0.0,-999.0,78,-99.99,,,0.00,weatherlink.com 1.10,2014-01-17 07:32:00,
2014-01-17 01:47:00,17.2,11.0,29.79,NNW,331,0.0,-999.0,78,-99.99,,,0.00,weatherlink.com 1.10,2014-01-17 07:47:00,
2014-01-17 02:02:00,16.7,11.0,29.80,NW,318,0.0,-999.0,78,-99.99,,,0.00,weatherlink.com 1.10,2014-01-17 08:02:00,
2014-01-17 02:17:00,16.3,11.0,29.80,NW,312,0.0,-999.0,79,-99.99,,,0.00,weatherlink.com 1.10,2014-01-17 08:17:00,
2014-01-17 02:32:00,15.9,11.0,29.80,NW,310,0.0,-999.0,79,-99.99,,,0.00,weatherlink.com 1.10,2014-01-17 08:32:00,
2014-01-17 02:47:00,15.6,11.0,29.81,NW,312,0.0,-999.0,81,-99.99,,,0.00,weatherlink.com 1.10,2014-01-17 08:47:00,
2014-01-17 03:02:00,15.1,10.0,29.81,NW,318,0.0,-999.0,81,-99.99,,,0.00,weatherlink.com 1.10,2014-01-17 09:02:00,
2014-01-17 03:17:00,14.8,10.0,29.82,NW,313,0.0,-999.0,82,-99.99,,,0.00,weatherlink.com 1.10,2014-01-17 09:17:00,
2014-01-17 03:32:00,14.7,10.0,29.82,NW,315,0.0,-999.0,82,-99.99,,,0.00,weatherlink.com 1.10,2014-01-17 09:32:00,
2014-01-17 03:47:00,14.4,10.0,29.82,NW,317,0.0,-999.0,82,-99.99,,,0.00,weatherlink.com 1.10,2014-01-17 09:47:00,
2014-01-17 04:02:00,14.3,10.0,29.82,NW,313,0.0,-999.0,82,-99.99,,,0.00,weatherlink.com 1.10,2014-01-17 10:02:00,
2014-01-17 04:17:00,14.0,9.0,29.83,NW,309,0.0,-999.0,81,-99.99,,,0.00,weatherlink.com 1.10,2014-01-17 10:17:00,
2014-01-17 04:32:00,13.9,9.0,29.83,NNW,348,0.0,-999.0,82,-99.99,,,0.00,weatherlink.com 1.10,2014-01-17 10:32:00,
2014-01-17 04:47:00,13.7,10.0,29.84,NW,319,0.0,-999.0,83,-99.99,,,0.00,weatherlink.com 1.10,2014-01-17 10:47:00,
2014-01-17 05:02:00,13.4,9.0,29.84,NNW,331,0.0,-999.0,81,-99.99,,,0.00,weatherlink.com 1.10,2014-01-17 11:02:00,
2014-01-17 05:17:00,13.3,9.0,29.85,NW,315,0.0,-999.0,82,-99.99,,,0.00,weatherlink.com 1.10,2014-01-17 11:17:00,
2014-01-17 05:32:00,13.0,9.0,29.85,NNW,327,0.0,-999.0,83,-99.99,,,0.00,weatherlink.com 1.10,2014-01-17 11:32:00,
2014-01-17 05:47:00,12.8,8.0,29.86,WNW,294,0.0,-999.0,82,-99.99,,,0.00,weatherlink.com 1.10,2014-01-17 11:47:00,
2014-01-17 06:02:00,12.6,8.0,29.86,NW,316,0.0,-999.0,82,-99.99,,,0.00,weatherlink.com 1.10,2014-01-17 12:02:00,
2014-01-17 06:17:00,12.5,8.0,29.87,NW,304,0.0,-999.0,82,-99.99,,,0.00,weatherlink.com 1.10,2014-01-17 12:17:00,
2014-01-17 06:32:00,12.2,7.0,29.87,WNW,292,0.0,-999.0,81,-99.99,,,0.00,weatherlink.com 1.10,2014-01-17 12:32:00,
2014-01-17 06:47:00,12.0,7.0,29.88,NW,321,0.0,-999.0,81,-99.99,,,0.00,weatherlink.com 1.10,2014-01-17 12:47:00,
2014-01-17 07:02:00,11.9,7.0,29.89,NW,314,0.0,-999.0,81,-99.99,,,0.00,weatherlink.com 1.10,2014-01-17 13:02:00,
2014-01-17 07:17:00,11.8,7.0,29.89,NW,309,0.0,-999.0,81,-99.99,,,0.00,weatherlink.com 1.10,2014-01-17 13:17:00,
2014-01-17 07:32:00,11.7,7.0,29.89,WNW,300,0.0,-999.0,81,-99.99,,,0.00,weatherlink.com 1.10,2014-01-17 13:32:00,
2014-01-17 07:47:00,11.7,7.0,29.89,WNW,288,0.0,-999.0,81,-99.99,,,0.00,weatherlink.com 1.10,2014-01-17 13:47:00,
2014-01-17 08:02:00,11.3,7.0,29.90,NW,309,0.0,-999.0,81,-99.99,,,0.00,weatherlink.com 1.10,2014-01-17 14:02:00,
2014-01-17 08:17:00,11.5,7.0,29.91,NW,306,0.0,-999.0,81,-99.99,,,0.00,weatherlink.com 1.10,2014-01-17 14:17:00,
2014-01-17 08:32:00,11.5,7.0,29.91,NW,309,0.0,-999.0,80,-99.99,,,0.00,weatherlink.com 1.10,2014-01-17 14:32:00,
2014-01-17 08:47:00,11.7,7.0,29.91,NW,309,0.0,-999.0,80,-99.99,,,0.00,weatherlink.com 1.10,2014-01-17 14:47:00,
2014-01-17 09:02:00,11.9,7.0,29.92,WNW,303,0.0,-999.0,80,-99.99,,,0.00,weatherlink.com 1.10,2014-01-17 15:02:00,
2014-01-17 09:17:00,12.0,7.0,29.93,WNW,282,0.0,-999.0,80,-99.99,,,0.00,weatherlink.com 1.10,2014-01-17 15:17:00,
2014-01-17 09:32:00,12.0,7.0,29.94,NW,314,0.0,-999.0,80,-99.99,,,0.00,weatherlink.com 1.10,2014-01-17 15:32:00,
2014-01-17 09:47:00,12.2,7.0,29.94,NW,319,0.0,-999.0,79,-99.99,,,0.00,weatherlink.com 1.10,2014-01-17 15:47:00,
2014-01-17 10:02:00,12.5,7.0,29.95,NW,319,0.0,-999.0,79,-99.99,,,0.00,weatherlink.com 1.10,2014-01-17 16:02:00,
2014-01-17 10:17:00,12.5,7.0,29.95,NW,311,0.0,-999.0,78,-99.99,,,0.00,weatherlink.com 1.10,2014-01-17 16:17:00,
2014-01-17 10:32:00,12.7,7.0,29.95,NW,317,0.0,-999.0,78,-99.99,,,0.00,weatherlink.com 1.10,2014-01-17 16:32:00,
2014-01-17 10:47:00,12.9,7.0,29.95,West,280,0.0,-999.0,77,-99.99,,,0.00,weatherlink.com 1.10,2014-01-17 16:47:00,
2014-01-17 11:02:00,13.1,7.0,29.95,WNW,291,0.0,-999.0,77,-99.99,,,0.00,weatherlink.com 1.10,2014-01-17 17:02:00,
2014-01-17 11:17:00,13.6,7.0,29.95,NNW,328,0.0,-999.0,76,-99.99,,,0.00,weatherlink.com 1.10,2014-01-17 17:17:00,
2014-01-17 11:32:00,14.0,7.0,29.94,NW,311,0.0,-999.0,75,-99.99,,,0.00,weatherlink.com 1.10,2014-01-17 17:32:00,
2014-01-17 11:50:00,14.4,8.0,29.94,WNW,294,0.0,-999.0,76,-99.99,,,0.00,weatherlink.com 1.10,2014-01-17 17:50:00,
2014-01-17 12:02:00,14.9,9.0,29.94,West,267,0.0,-999.0,76,-99.99,,,0.00,weatherlink.com 1.10,2014-01-17 18:02:00,
2014-01-17 12:17:00,15.0,9.0,29.93,West,261,0.0,-999.0,76,-99.99,,,0.00,weatherlink.com 1.10,2014-01-17 18:17:00,
2014-01-17 12:32:00,15.4,9.0,29.93,West,279,0.0,-999.0,74,-99.99,,,0.00,weatherlink.com 1.10,2014-01-17 18:32:00,
2014-01-17 12:47:00,15.9,9.0,29.93,WNW,283,0.0,-999.0,75,-99.99,,,0.00,weatherlink.com 1.10,2014-01-17 18:47:00,
2014-01-17 13:01:00,16.1,10.0,29.93,WNW,298,0.0,-999.0,75,-99.99,,,0.00,weatherlink.com 1.10,2014-01-17 19:01:00,
2014-01-17 13:16:00,16.2,10.0,29.93,NW,314,0.0,-999.0,76,-99.99,,,0.00,weatherlink.com 1.10,2014-01-17 19:16:00,
2014-01-17 13:32:00,16.9,10.0,29.93,WNW,296,0.0,-999.0,75,-99.99,,,0.00,weatherlink.com 1.10,2014-01-17 19:32:00,
2014-01-17 13:47:00,17.4,11.0,29.94,NW,311,0.0,-999.0,75,-99.99,,,0.00,weatherlink.com 1.10,2014-01-17 19:47:00,
2014-01-17 14:01:00,17.4,11.0,29.94,NW,313,0.0,-999.0,75,-99.99,,,0.00,weatherlink.com 1.10,2014-01-17 20:01:00,
2014-01-17 14:16:00,17.5,11.0,29.95,NNW,327,0.0,-999.0,75,-99.99,,,0.00,weatherlink.com 1.10,2014-01-17 20:16:00,
2014-01-17 14:31:00,17.4,11.0,29.95,West,265,0.0,-999.0,76,-99.99,,,0.00,weatherlink.com 1.10,2014-01-17 20:31:00,
2014-01-17 14:46:00,17.2,11.0,29.96,NW,304,0.0,-999.0,77,-99.99,,,0.00,weatherlink.com 1.10,2014-01-17 20:46:00,
2014-01-17 15:01:00,17.2,12.0,29.96,WNW,303,0.0,-999.0,80,-99.99,,,0.00,weatherlink.com 1.10,2014-01-17 21:01:00,
2014-01-17 15:16:00,17.1,12.0,29.97,NW,313,0.0,-999.0,80,-99.99,,,0.00,weatherlink.com 1.10,2014-01-17 21:16:00,
2014-01-17 15:31:00,17.1,12.0,29.98,NW,311,0.0,-999.0,80,-99.99,,,0.00,weatherlink.com 1.10,2014-01-17 21:31:00,
2014-01-17 15:46:00,17.1,12.0,29.98,WNW,296,0.0,-999.0,80,-99.99,,,0.00,weatherlink.com 1.10,2014-01-17 21:46:00,
2014-01-17 16:01:00,16.9,12.0,29.99,NW,311,0.0,-999.0,81,-99.99,,,0.00,weatherlink.com 1.10,2014-01-17 22:01:00,
2014-01-17 16:16:00,16.8,13.0,30.00,WNW,301,0.0,-999.0,83,-99.99,,,0.00,weatherlink.com 1.10,2014-01-17 22:16:00,
2014-01-17 16:31:00,16.7,12.0,30.00,NW,316,0.0,-999.0,83,-99.99,,,0.00,weatherlink.com 1.10,2014-01-17 22:31:00,
2014-01-17 16:46:00,16.6,12.0,30.01,NW,310,0.0,-999.0,83,-99.99,,,0.00,weatherlink.com 1.10,2014-01-17 22:46:00,
2014-01-17 17:01:00,16.4,12.0,30.01,NW,308,0.0,-999.0,83,-99.99,,,0.00,weatherlink.com 1.10,2014-01-17 23:01:00,
2014-01-17 17:16:00,16.3,12.0,30.01,WNW,298,0.0,-999.0,84,-99.99,,,0.00,weatherlink.com 1.10,2014-01-17 23:16:00,
2014-01-17 17:31:00,16.1,12.0,30.02,NW,306,0.0,-999.0,83,-99.99,,,0.00,weatherlink.com 1.10,2014-01-17 23:31:00,
2014-01-17 17:46:00,16.1,12.0,30.02,NW,310,0.0,-999.0,83,-99.99,,,0.00,weatherlink.com 1.10,2014-01-17 23:46:00,
2014-01-17 18:01:00,16.2,12.0,30.03,WNW,298,0.0,-999.0,83,-99.99,,,0.00,weatherlink.com 1.10,2014-01-18 00:01:00,
2014-01-17 18:16:00,16.2,12.0,30.03,NW,315,0.0,-999.0,84,-99.99,,,0.00,weatherlink.com 1.10,2014-01-18 00:16:00,
2014-01-17 18:31:00,16.3,12.0,30.03,NW,308,0.0,-999.0,84,-99.99,,,0.00,weatherlink.com 1.10,2014-01-18 00:31:00,
2014-01-17 18:46:00,16.2,12.0,30.04,WNW,296,0.0,-999.0,84,-99.99,,,0.00,weatherlink.com 1.10,2014-01-18 00:46:00,
2014-01-17 19:01:00,16.3,12.0,30.04,NW,306,0.0,-999.0,84,-99.99,,,0.00,weatherlink.com 1.10,2014-01-18 01:01:00,
2014-01-17 19:16:00,16.4,12.0,30.04,WNW,288,0.0,-999.0,83,-99.99,,,0.00,weatherlink.com 1.10,2014-01-18 01:16:00,
2014-01-17 19:31:00,16.3,12.0,30.04,NW,305,0.0,-999.0,83,-99.99,,,0.00,weatherlink.com 1.10,2014-01-18 01:31:00,
2014-01-17 19:46:00,16.3,12.0,30.03,NW,306,0.0,-999.0,83,-99.99,,,0.00,weatherlink.com 1.10,2014-01-18 01:46:00,
2014-01-17 20:01:00,16.4,12.0,30.03,NW,309,0.0,-999.0,83,-99.99,,,0.00,weatherlink.com 1.10,2014-01-18 02:01:00,
2014-01-17 20:16:00,16.4,12.0,30.04,WNW,291,0.0,-999.0,83,-99.99,,,0.00,weatherlink.com 1.10,2014-01-18 02:16:00,
2014-01-17 20:31:00,16.4,12.0,30.04,WNW,301,0.0,-999.0,83,-99.99,,,0.00,weatherlink.com 1.10,2014-01-18 02:31:00,
2014-01-17 20:46:00,16.3,11.0,30.04,NW,311,0.0,-999.0,81,-99.99,,,0.00,weatherlink.com 1.10,2014-01-18 02:46:00,
2014-01-17 21:01:00,16.2,11.0,30.04,NW,319,0.0,-999.0,80,-99.99,,,0.00,weatherlink.com 1.10,2014-01-18 03:01:00,
2014-01-17 21:16:00,16.1,11.0,30.04,WNW,296,0.0,-999.0,79,-99.99,,,0.00,weatherlink.com 1.10,2014-01-18 03:16:00,
2014-01-17 21:31:00,16.0,11.0,30.04,NW,311,0.0,-999.0,80,-99.99,,,0.00,weatherlink.com 1.10,2014-01-18 03:31:00,
2014-01-17 21:46:00,15.8,11.0,30.04,WNW,299,0.0,-999.0,80,-99.99,,,0.00,weatherlink.com 1.10,2014-01-18 03:46:00,
2014-01-17 22:01:00,15.7,11.0,30.04,NW,315,0.0,-999.0,80,-99.99,,,0.00,weatherlink.com 1.10,2014-01-18 04:01:00,
2014-01-17 22:16:00,15.5,10.0,30.03,NW,308,0.0,-999.0,79,-99.99,,,0.00,weatherlink.com 1.10,2014-01-18 04:16:00,
2014-01-17 22:31:00,15.3,10.0,30.02,NW,309,0.0,-999.0,80,-99.99,,,0.00,weatherlink.com 1.10,2014-01-18 04:31:00,
2014-01-17 22:46:00,15.1,10.0,30.02,WNW,294,0.0,-999.0,80,-99.99,,,0.00,weatherlink.com 1.10,2014-01-18 04:46:00,
2014-01-17 23:01:00,14.8,10.0,30.02,NW,304,0.0,-999.0,80,-99.99,,,0.00,weatherlink.com 1.10,2014-01-18 05:01:00,
2014-01-17 23:17:00,14.3,9.0,30.02,NW,309,0.0,-999.0,79,-99.99,,,0.00,weatherlink.com 1.10,2014-01-18 05:17:00,
2014-01-17 23:31:00,13.5,8.0,30.02,WNW,298,0.0,-999.0,80,-99.99,,,0.00,weatherlink.com 1.10,2014-01-18 05:31:00,
2014-01-17 23:46:00,13.5,9.0,30.01,WNW,295,0.0,-999.0,81,-99.99,,,0.00,weatherlink.com 1.10,2014-01-18 05:46:00,